Location: Unspecified
(38.9820°N, 94.4650°W)
Time: 09:52:02
(UTC-05:00)

Cosmos 2058 - Visible Passes

Search period start: 19 July 2018 00:00
Search period end: 29 July 2018 00:00
Orbit: 562 x 585 km, 82.5° (Epoch: 18 July)

Date Brightness Start Highest point End Pass type
(mag) Time Alt. Az. Time Alt. Az. Time Alt. Az.
19 Jul 4.7 21:21:11 10° SW 21:24:56 34° WNW 21:28:42 10° N visible
20 Jul 5.3 21:24:41 10° SW 21:28:08 26° WNW 21:31:36 10° NNW visible
21 Jul 5.8 21:28:19 10° WSW 21:31:21 20° WNW 21:34:24 10° NNW visible
22 Jul 6.0 21:32:10 10° WSW 21:34:36 15° WNW 21:37:01 10° NW visible
23 Jul 6.4 21:36:29 10° W 21:37:51 11° WNW 21:39:13 10° NW visible
